Tracking 17842 objects as of 31-August-2016
HD Live streaming from Space Station
objects crossing your sky now

AZUR (GRS A)

Track AZUR (GRS A) now!
10-day predictions
AZUR (GRS A) is classified as:


NORAD ID: 4221
Int'l Code: 1969-097A
Perigee: 364.0 km
Apogee: 1,300.6 km
Inclination: 102.7 °
Period: 101.4 minutes
Semi major axis: 7203 km
RCS: 0.3339 m2 (medium)
Launch date: November 8, 1969
Source: Germany (GER)
Launch site: AIR FORCE WESTERN TEST RANGE (AFWTR)
Your satellite tracking list
Your tracking list is empty





NASA's NSSDC Master Catalog

Two Line Element Set (TLE):
1  4221U 69097A   16243.87870457 +.00008502 +00000-0 +40486-3 0  9992
2  4221 102.6868 333.8431 0650132 133.2199 232.5174 14.20052918207951
Source of the keplerian elements: AFSPC

N2YO: 743